Regional Weather Roundup
Issued by NWS

Home | Current Version | Previous Version | Text Only | Print | Product List | Glossary On
Versions: 1 2 3 4 5 6 7 8 9 10 11 12 13 14 15 16 17 18 19 20 21 22 23 24 25 26 27 28
000
ASUS44 KBMX 251710
RWRAL

ALABAMA REGIONAL WEATHER ROUNDUP
NATIONAL WEATHER SERVICE BIRMINGHAM AL
1200 PM CDT SAT OCT 25 2014

NOTE: "FAIR" INDICATES FEW OR NO CLOUDS BELOW 12,000 FEET
WITH NO SIGNIFICANT WEATHER AND/OR OBSTRUCTIONS TO VISIBILITY.

THE REMARK "TC" DENOTES TEMPERATURE IN DEGREES CELSIUS.

ALZ001>011-014-016>018-020-251800-
NORTH ALABAMA

CITY           SKY/WX    TMP DP  RH WIND       PRES   REMARKS
MUSCLE SHOALS  SUNNY     73  55  53 VRB3      30.11F
HUNTSVILLE     SUNNY     71  52  50 CALM      30.10F
DECATUR        SUNNY     69  54  58 VRB3      30.10F
HALEYVILLE     FAIR      71  57  61 NW7       30.14F
GADSDEN        SUNNY     70  50  49 NW7       30.10F
$$

ALZ012-013-022-023-030>036-040>044-251800-
WEST CENTRAL ALABAMA

CITY           SKY/WX    TMP DP  RH WIND       PRES   REMARKS
TUSCALOOSA     SUNNY     73  54  51 VRB7      30.13F
$$

ALZ015-024>027-033>036-040>044-251800-
CENTRAL ALABAMA

CITY           SKY/WX    TMP DP  RH WIND       PRES   REMARKS
BIRMINGHAM     SUNNY     71  51  49 NW9       30.14F
MONTGOMERY     SUNNY     75  50  41 N7        30.09F
SHELBY CO ARPT SUNNY     70  53  54 NW6       30.11F
MAXWELL AFB    SUNNY     74  51  44 N8        30.09F
GREENVILLE     FAIR      74  49  41 VRB6      30.09F
$$

ALZ019-021-028-029-037-038-045>048-251800-
EAST CENTRAL ALABAMA

CITY           SKY/WX    TMP DP  RH WIND       PRES   REMARKS
ANNISTON       SUNNY     70  48  45 N8        30.10F
ALEXANDER CITY SUNNY     74  54  49 NW10      30.09S
AUBURN         SUNNY     72  48  43 N8        30.11F
$$

ALZ051>064-251800-
SOUTHWEST ALABAMA

CITY           SKY/WX    TMP DP  RH WIND       PRES   REMARKS
MOBILE         SUNNY     73  53  49 N10       30.13F
BROOKLEY FIELD SUNNY     73  53  49 N13G18    30.13F
EVERGREEN      SUNNY     75  49  39 NE8G18    30.10F
$$

ALZ049-050-065>069-251800-
SOUTHEAST ALABAMA

CITY           SKY/WX    TMP DP  RH WIND       PRES   REMARKS
DOTHAN         SUNNY     73  46  38 N8        30.10F
OZARK          SUNNY     73  44  36 NW10      30.07F
TROY           SUNNY     74  50  42 N13       30.09F
EUFAULA        FAIR      73  46  38 NW8       30.05F
$$



USA.gov is the U.S. government's official web portal to all federal, state and local government web resources and services.